sat.trackr.live / text

‹ back to catalog

ONEWEB-0287

NORAD 49077 · 2021-075C

PAYLOAD ACTIVE UNKNOWN

§ Identity

Operator
Country
UK
Launch date
2021-08-21
Launch site
TYMSC
Launch vehicle
Mass (kg)
RCS (m²)

Purposes: comms

External: N2YO · Heavens-Above · Gunter

§ Orbital elements

Epoch: 2026-09-11T23:04:51.496896Z

Period
109.29 min
Inclination
87.9205°
Eccentricity
0.0001899
Mean motion
13.17649050 rev/d
Perigee alt
1,192.3 km
Apogee alt
1,195.2 km
Semi-major
7,571.9 km
B*
-9.7897e-5
RAAN
348.6313°
Arg perigee
113.3183°
Mean anomaly
246.8149°
Rev number
24,505

§ Raw data

ONEWEB-02871 49077U 21075C   26254.96170714 -.00000025  00000+0 -97897-4 0  99982 49077  87.9205 348.6313 0001899 113.3183 246.8149 13.17649050245051

JSON: /api/v1/satellites/49077 · /tle

For live sub-satellite position, see the globe view (requires WebGL).

§ Visibility from observer

Set your observer location to see the next 7 days of passes ≥ 10°. The values pass through the URL so the page stays shareable.

No JS? Fill the form by hand. The geolocation button needs JavaScript.